Weather History for KSPI - November, 2012

Change the Weather History Date:

Saturday, November 10, 2012

  Actual Average Record
Temperature  
Mean Temperature 66 °F 46 °F  
Max Temperature 75 °F 55 °F 75 °F (1999)
Min Temperature 56 °F 36 °F 17 °F (1973)
Degree Days  
Heating Degree Days 0 19  
Month to date heating degree days 195 172  
Since 1 July heating degree days 637 582  
Cooling Degree Days 1 0  
Month to date cooling degree days 1 0  
Year to date cooling degree days 1534 1121  
Growing Degree Days 16 (Base 50)    
Moisture  
Dew Point 50 °F    
Average Humidity 61    
Maximum Humidity 78    
Minimum Humidity 44    
Precipitation  
Precipitation 0.00 in 0.10 in 1.27 in (1984)
Month to date precipitation 0.24 1.03  
Year to date precipitation 25.89 32.73  
Snow  
Snow 0.00 in 0.00 in 0.10 in (1900)
Month to date snowfall 0.0 0.1  
Since 1 July snowfall 0.0 0.1  
Since 1 September snowfall 0.0 0.1  
Snow Depth 0.00 in    
Sea Level Pressure  
Sea Level Pressure 29.94 in    
Wind  
Wind Speed 17 mph (South)    
Max Wind Speed 31 mph    
Max Gust Speed 43 mph    
Visibility 10 miles    
Events      
T = Trace of Precipitation, MM = Missing Value Source: NWS Daily Summary

Daily Weather History Graph

Daily Weather History Graph

Search for Another Location

Airport or City:

Trip Planner

Search our weather history database for the weather conditions in past years. The results will help you decide how hot, cold, wet, or windy it might be!

Date:

Astronomy

Nov. 10, 2012 Rise Set
Actual Time 6:38 AM CST 4:46 PM CST
Civil Twilight 6:09 AM CST 5:15 PM CST
Nautical Twilight 5:37 AM CST 5:47 PM CST
Astronomical Twilight 5:05 AM CST 6:19 PM CST
Moon 2:43 AM CST (11/10) 2:33 PM CST (11/10)
Length of Visible Light 11h 05m
Length of Day
10h 08m
Waning Crescent, 14% of the Moon is Illuminated
Nov 10
Waning Crescent
Nov 13
New
Nov 20
First Quarter
Nov 28
Full
Dec 6
Last Quarter

Hourly Weather History & Observations

Time (CST) Temp. Dew Point Humidity Pressure Visibility Wind Dir Wind Speed Gust Speed Precip Events Conditions
12:52 AM 59.0 °F 52.0 °F 78% 29.98 in 10.0 mi South 10.4 mph - N/A   Scattered Clouds
1:52 AM 59.0 °F 51.1 °F 75% 29.98 in 10.0 mi South 9.2 mph - N/A   Partly Cloudy
2:52 AM 57.9 °F 50.0 °F 75% 29.98 in 10.0 mi South 12.7 mph - N/A   Clear
3:52 AM 57.0 °F 48.0 °F 72% 29.98 in 10.0 mi SSE 11.5 mph - N/A   Clear
4:52 AM 57.0 °F 46.9 °F 69% 29.99 in 10.0 mi South 12.7 mph - N/A   Clear
5:52 AM 57.0 °F 46.0 °F 67% 29.97 in 10.0 mi SSE 12.7 mph - N/A   Partly Cloudy
6:52 AM 57.9 °F 45.0 °F 62% 29.98 in 10.0 mi South 17.3 mph - N/A   Clear
7:52 AM 57.9 °F 46.0 °F 65% 29.98 in 10.0 mi South 15.0 mph - N/A   Clear
8:52 AM 62.1 °F 48.0 °F 60% 29.97 in 10.0 mi South 13.8 mph - N/A   Clear
9:52 AM 66.0 °F 50.0 °F 56% 29.95 in 10.0 mi South 20.7 mph 25.3 mph N/A   Clear
10:52 AM 70.0 °F 51.1 °F 51% 29.94 in 10.0 mi South 21.9 mph 27.6 mph N/A   Clear
11:52 AM 73.0 °F 53.1 °F 49% 29.92 in 10.0 mi SSW 16.1 mph 24.2 mph N/A   Clear
12:52 PM 75.0 °F 53.1 °F 46% 29.89 in 10.0 mi South 16.1 mph 26.5 mph N/A   Clear
1:52 PM 75.0 °F 53.1 °F 46% 29.88 in 10.0 mi South 19.6 mph 26.5 mph N/A   Clear
2:52 PM 73.9 °F 50.0 °F 43% 29.88 in 10.0 mi South 15.0 mph 28.8 mph N/A   Clear
3:52 PM 73.0 °F 50.0 °F 44% 29.88 in 10.0 mi South 15.0 mph - N/A   Clear
4:52 PM 70.0 °F 50.0 °F 49% 29.90 in 10.0 mi South 19.6 mph 29.9 mph N/A   Clear
5:52 PM 66.9 °F 52.0 °F 59% 29.92 in 10.0 mi South 19.6 mph 28.8 mph N/A   Clear
6:52 PM 66.0 °F 52.0 °F 60% 29.94 in 10.0 mi South 23.0 mph 36.8 mph N/A   Clear
7:52 PM 64.9 °F 53.1 °F 65% 29.93 in 10.0 mi South 21.9 mph 32.2 mph N/A   Clear
8:52 PM 64.9 °F 52.0 °F 63% 29.93 in 10.0 mi South 25.3 mph 32.2 mph N/A   Clear
9:52 PM 64.0 °F 50.0 °F 60% 29.92 in 10.0 mi South 21.9 mph 31.1 mph N/A   Clear
10:52 PM 64.0 °F 48.0 °F 56% 29.91 in 10.0 mi South 24.2 mph 38.0 mph N/A   Clear
11:52 PM 66.0 °F 48.0 °F 52% 29.90 in 10.0 mi South 23.0 mph 42.6 mph N/A   Clear